Change the Weather History Date:

Saturday, April 6, 2013

  Actual Average Record
Temperature  
Mean Temperature 73 °F 75 °F  
Max Temperature 83 °F 86 °F 99 °F (1955)
Min Temperature 62 °F 64 °F 40 °F (1881)
Degree Days  
Heating Degree Days 0 0  
Month to date heating degree days 0 3  
Since 1 July heating degree days 312 574  
Cooling Degree Days 8 10  
Month to date cooling degree days 54 60  
Year to date cooling degree days 522 437  
Growing Degree Days 22 (Base 50)    
Moisture  
Dew Point 60 °F    
Average Humidity 66    
Maximum Humidity 84    
Minimum Humidity 47    
Precipitation  
Precipitation 0.00 in 0.03 in 0.84 in (1991)
Month to date precipitation T 0.18  
Year to date precipitation 0.99 3.37  
Sea Level Pressure  
Sea Level Pressure 29.96 in    
Wind  
Wind Speed 15 mph (SE)    
Max Wind Speed 28 mph    
Max Gust Speed 33 mph    
Visibility 10 miles    
Events      
T = Trace of Precipitation, MM = Missing Value Source: NWS Daily Summary

Daily Weather History Graph

Daily Weather History Graph

Search for Another Location

Airport or City:

Trip Planner

Search our weather history database for the weather conditions in past years. The results will help you decide how hot, cold, wet, or windy it might be!

Date:

Astronomy

Apr. 06, 2013 Rise Set
Actual Time 7:18 AM CDT 7:52 PM CDT
Civil Twilight 6:55 AM CDT 8:15 PM CDT
Nautical Twilight 6:27 AM CDT 8:43 PM CDT
Astronomical Twilight 6:00 AM CDT 9:10 PM CDT
Moon 4:42 AM CDT (4/6) 4:40 PM CDT (4/6)
Length of Visible Light 13h 20m
Length of Day
12h 33m
Waning Crescent, 15% of the Moon is Illuminated
Apr 6
Waning Crescent
Apr 10
New
Apr 18
First Quarter
Apr 25
Full
May 2
Last Quarter

Hourly Weather History & Observations

Time (CDT) Temp. Heat Index Dew Point Humidity Pressure Visibility Wind Dir Wind Speed Gust Speed Precip Events Conditions
12:53 AM 63.0 °F - 55.9 °F 78% 30.07 in 10.0 mi SE 8.1 mph - N/A   Clear
1:53 AM 63.0 °F - 55.9 °F 78% 30.04 in 10.0 mi ESE 10.4 mph - N/A   Clear
2:53 AM 63.0 °F - 57.0 °F 81% 30.04 in 10.0 mi ESE 6.9 mph - N/A   Clear
3:53 AM 63.0 °F - 57.0 °F 81% 30.01 in 10.0 mi ESE 8.1 mph - N/A   Clear
4:53 AM 62.1 °F - 57.0 °F 84% 30.00 in 10.0 mi ESE 9.2 mph - N/A   Partly Cloudy
5:53 AM 63.0 °F - 57.9 °F 84% 30.00 in 10.0 mi ESE 10.4 mph - N/A   Clear
6:53 AM 64.0 °F - 57.9 °F 80% 29.98 in 10.0 mi ESE 13.8 mph - N/A   Clear
7:53 AM 66.0 °F - 59.0 °F 78% 29.98 in 10.0 mi ESE 12.7 mph 20.7 mph N/A   Clear
8:53 AM 68.0 °F - 60.1 °F 76% 30.02 in 10.0 mi ESE 6.9 mph - N/A   Partly Cloudy
9:53 AM 71.1 °F - 60.1 °F 68% 30.02 in 10.0 mi SE 15.0 mph - N/A   Partly Cloudy
10:17 AM 71.6 °F - 60.8 °F 69% 30.00 in 10.0 mi SE 15.0 mph - N/A   Mostly Cloudy
10:36 AM 71.6 °F - 60.8 °F 69% 29.98 in 10.0 mi SE 19.6 mph 29.9 mph N/A   Scattered Clouds
10:53 AM 75.0 °F - 60.1 °F 60% 29.93 in 10.0 mi SE 26.5 mph 33.4 mph N/A   Clear
11:07 AM 73.4 °F - 60.8 °F 65% 30.02 in 10.0 mi SSE 13.8 mph 20.7 mph N/A   Scattered Clouds
11:15 AM 73.4 °F - 60.8 °F 65% 30.01 in 10.0 mi SSE 13.8 mph 21.9 mph N/A   Mostly Cloudy
11:46 AM 75.2 °F - 60.8 °F 61% 30.01 in 10.0 mi SSE 17.3 mph 24.2 mph N/A   Overcast
11:53 AM 75.9 °F - 61.0 °F 60% 30.01 in 10.0 mi SSE 15.0 mph 21.9 mph N/A   Overcast
12:53 PM 80.1 °F 81.1 °F 61.0 °F 52% 29.98 in 10.0 mi SSE 12.7 mph 21.9 mph N/A   Mostly Cloudy
1:53 PM 82.0 °F 82.4 °F 60.1 °F 47% 29.94 in 10.0 mi SE 19.6 mph 26.5 mph N/A   Mostly Cloudy
2:53 PM 81.0 °F 81.7 °F 61.0 °F 50% 29.91 in 10.0 mi SE 17.3 mph 27.6 mph N/A   Overcast
3:53 PM 82.9 °F 83.3 °F 61.0 °F 47% 29.88 in 10.0 mi ESE 20.7 mph 28.8 mph N/A   Mostly Cloudy
4:53 PM 82.0 °F 82.7 °F 61.0 °F 49% 29.86 in 10.0 mi SE 21.9 mph 28.8 mph N/A   Mostly Cloudy
5:53 PM 81.0 °F 81.7 °F 61.0 °F 50% 29.85 in 10.0 mi SE 20.7 mph 29.9 mph N/A   Partly Cloudy
6:53 PM 78.1 °F - 61.0 °F 56% 29.85 in 10.0 mi SE 21.9 mph - N/A   Clear
7:53 PM 73.9 °F - 61.0 °F 64% 29.87 in 10.0 mi SE 19.6 mph - N/A   Clear
8:53 PM 72.0 °F - 61.0 °F 68% 29.88 in 10.0 mi SE 18.4 mph 26.5 mph N/A   Clear
9:53 PM 70.0 °F - 61.0 °F 73% 29.91 in 10.0 mi SE 16.1 mph - N/A   Clear
10:53 PM 69.1 °F - 62.1 °F 78% 29.92 in 10.0 mi SE 13.8 mph - N/A   Clear
11:53 PM 69.1 °F - 62.1 °F 78% 29.92 in 10.0 mi SE 12.7 mph - N/A   Clear